GFSSW_prec_cthk_327.txt.gz
RH
15 14 13 12 12 12 12 11 11 13 13 11 11 11 11 10 11 11 11 10 10 12 14 13 16 19 21 27 30 32 34 35 33 26 21 16 14 13 11 10 10 9 8 8 7
15 14 13 13 12 12 12 11 11 11 12 11 10 11 10 10 11 11 10 10 10 10 12 13 12 12 14 19 23 27 28 26 23 19 17 15 13 12 11 11 9 9 8 8 7
15 14 14 14 13 12 11 11 10 11 12 11 10 11 10 10 11 10 10 10 10 12 13 13 12 11 10 13 16 19 21 20 17 16 16 14 12 12 11 10 8 7 7 8 7
16 14 14 14 13 12 11 10 10 10 11 11 10 10 10 10 14 11 10 9 10 12 13 13 12 11 9 9 11 14 14 13 14 13 12 12 11 11 10 8 8 7 7 7 7
18 15 14 14 13 12 11 10 10 10 10 10 10 10 10 10 12 12 10 8 9 10 12 13 12 11 10 8 10 11 10 8 9 8 8 9 9 10 7 7 7 8 7 7 7
19 16 14 13 13 12 12 10 10 10 10 10 9 10 10 10 12 12 10 8 8 9 10 11 11 12 10 9 10 9 9 9 9 9 9 9 9 8 6 6 6 7 7 7 6
19 19 15 14 13 12 12 11 10 9 10 10 9 9 10 10 12 12 10 9 8 8 9 9 9 11 10 10 10 10 10 11 11 11 10 10 9 8 7 7 6 6 6 6 6
15 18 19 15 13 12 12 11 10 10 10 10 9 9 9 9 9 11 11 10 9 8 8 8 9 10 11 11 12 12 12 11 10 11 10 10 8 5 7 7 7 6 6 6 6
15 14 17 19 15 13 12 12 11 10 10 10 10 9 9 9 9 10 10 10 9 9 9 8 9 10 11 14 15 14 11 9 8 10 10 10 9 7 7 7 7 7 7 7 7
18 14 14 18 18 15 12 12 12 11 10 10 10 10 9 9 9 9 10 9 9 9 10 10 11 12 11 11 13 14 11 9 9 9 11 11 10 9 8 8 7 7 8 8 8
21 15 13 16 18 17 16 13 13 13 12 10 9 10 10 10 10 10 10 9 9 9 11 11 11 13 12 10 9 10 11 10 10 10 11 10 10 9 9 9 9 9 9 9 9
24 18 13 14 18 17 16 17 17 17 15 12 10 10 10 11 10 11 10 10 9 10 10 12 12 12 12 12 11 11 11 11 11 10 11 11 10 10 8 8 8 9 9 10 10
26 23 15 12 16 19 17 18 20 19 18 13 13 12 11 11 11 11 11 10 10 10 11 12 11 12 12 12 12 11 11 11 12 12 12 13 11 10 9 9 9 9 9 10 10
30 25 19 13 15 21 19 19 20 20 19 14 14 13 13 12 12 11 11 10 10 11 12 12 11 12 13 13 11 11 11 12 12 15 11 13 12 12 11 11 11 11 11 11 11
37 27 22 18 18 23 19 19 22 20 21 13 15 14 13 13 12 12 11 11 11 11 12 12 12 12 13 12 11 11 13 13 16 18 17 14 15 13 13 13 12 12 13 13 13
40 30 24 21 19 25 22 20 22 22 24 16 16 15 14 14 14 13 13 12 12 12 12 12 12 12 12 12 12 14 16 19 23 23 20 17 16 14 15 14 15 15 14 14 14
49 34 25 23 21 26 26 24 25 24 17 18 18 16 16 16 16 14 14 14 14 15 14 13 13 12 13 14 15 15 18 23 22 22 21 22 20 16 14 16 16 17 17 17 16
52 45 27 22 22 28 31 28 26 18 17 18 18 18 18 18 17 16 16 15 14 13 16 15 13 14 13 14 15 17 17 24 20 23 21 22 23 16 15 15 16 17 18 18 17
56 51 38 20 23 28 33 36 24 20 16 17 16 19 19 19 18 18 17 16 13 13 12 16 14 14 14 14 15 17 20 19 26 30 25 22 19 17 16 16 15 16 17 17 16
57 57 47 27 23 30 36 30 26 20 18 16 16 17 21 21 19 19 19 15 13 13 11 13 15 15 15 15 15 17 19 20 23 26 25 22 22 20 18 16 15 15 16 17 16
60 57 52 34 27 32 41 35 27 23 22 18 18 18 18 21 21 20 17 14 14 14 13 14 15 18 17 17 17 18 19 23 25 28 27 25 23 18 17 15 15 15 16 17 16
62 61 52 49 35 31 36 34 26 26 24 22 19 17 17 18 21 21 18 15 14 14 15 14 17 20 18 17 17 17 18 21 27 25 31 33 25 19 18 16 15 15 16 17 16
56 58 58 54 49 37 30 31 28 26 26 26 23 20 18 19 18 19 19 16 15 14 15 15 17 20 17 19 20 19 18 20 25 28 29 32 23 20 19 17 16 15 16 17 16
66 72 65 61 54 42 35 31 31 26 27 26 25 23 21 19 20 21 20 18 17 15 15 15 17 16 17 15 20 21 20 22 21 27 27 27 22 21 20 20 17 17 17 19 18
64 64 65 65 56 55 46 32 28 32 27 26 27 25 24 23 21 20 21 21 20 17 17 17 18 17 16 16 18 19 22 25 23 20 20 20 23 21 21 20 19 17 17 19 18
64 72 75 73 61 58 57 43 37 28 27 27 28 27 27 25 22 22 21 22 21 22 20 19 19 19 17 18 19 19 21 23 24 23 22 22 20 22 21 20 19 19 18 18 19
68 69 76 74 70 64 55 52 45 37 29 25 26 28 29 27 24 22 21 21 20 22 23 23 23 21 21 21 23 24 20 22 23 23 22 22 18 21 21 21 20 19 18 19 18

GFSSW_prec_cthk_333.txt.gz
RH
17 14 13 12 12 12 12 12 12 13 14 12 11 10 11 10 10 12 15 11 9 10 12 14 20 28 34 37 35 34 37 41 40 36 38 30 24 11 10 10 8 8 10 11 9
17 14 13 12 12 12 12 12 12 13 13 11 11 10 11 10 10 13 12 11 9 9 11 15 18 20 24 31 33 36 38 39 37 32 28 24 14 14 9 10 9 8 9 9 10
17 14 14 13 12 12 12 12 11 13 12 11 10 10 11 10 11 14 11 11 9 12 13 13 13 14 17 22 26 30 39 34 28 24 20 15 12 12 10 10 10 10 10 8 9
18 15 13 13 13 12 12 12 11 12 12 11 10 10 11 10 17 13 11 10 9 11 13 14 13 15 13 15 17 23 22 20 19 15 13 12 12 10 9 10 11 8 9 8 8
18 18 14 13 13 12 12 11 11 11 11 11 10 10 11 13 12 11 11 9 10 10 11 13 14 13 11 11 11 14 12 11 9 8 7 8 8 9 8 8 9 8 7 8 8
16 17 16 14 12 12 11 11 10 10 10 11 10 9 11 13 11 11 11 9 10 11 11 11 12 11 10 9 11 10 8 8 8 8 8 8 8 8 6 6 7 8 6 8 8
18 16 15 14 13 12 11 11 10 10 10 10 10 10 10 12 10 12 12 10 9 10 11 9 9 12 10 9 9 8 9 9 9 9 10 9 7 7 7 6 6 6 7 7 8
23 18 14 14 14 12 11 11 10 10 9 9 10 10 10 9 9 10 12 12 10 9 8 8 8 11 11 10 10 10 10 15 11 9 10 9 9 7 6 6 6 7 6 6 8
30 22 15 13 14 14 12 10 10 10 9 9 9 10 11 9 8 10 10 11 11 10 8 8 9 11 10 13 13 11 13 10 9 7 9 8 9 7 5 6 6 6 6 6 7
37 28 18 13 12 14 15 11 11 10 10 10 9 10 9 10 9 9 10 10 11 10 10 10 11 12 10 10 15 14 10 8 8 8 7 8 7 7 7 6 6 6 7 7 7
44 36 24 15 12 13 16 15 14 14 12 11 11 9 9 9 9 10 10 10 10 10 11 12 11 13 13 9 8 7 7 7 7 7 7 7 7 6 6 7 7 6 7 8 8
45 41 33 18 12 12 17 19 17 19 15 13 11 10 9 9 10 10 10 11 11 11 11 11 11 12 9 9 9 8 8 7 7 8 7 7 7 7 7 8 7 8 8 8 9
47 43 38 23 16 12 18 17 17 18 19 15 13 13 11 9 10 11 10 11 10 11 11 10 14 10 9 10 10 9 9 8 8 8 8 9 7 6 7 7 7 8 9 10 10
48 46 41 29 21 17 20 19 18 20 18 16 15 15 13 12 11 10 10 11 11 11 10 10 12 10 10 10 10 10 10 9 10 10 10 10 10 9 7 7 7 8 9 9 10
48 44 49 39 22 25 21 19 19 20 18 17 17 15 14 13 13 13 11 12 12 12 11 12 11 11 11 11 11 12 10 10 11 11 12 11 10 8 8 8 9 9 10 10 11
47 46 47 48 31 20 24 23 24 20 19 16 17 16 15 14 14 14 13 12 13 13 11 12 12 11 12 11 11 12 11 12 13 15 16 11 10 11 10 9 10 10 11 12 11
38 40 41 51 40 21 25 28 27 23 17 16 16 17 16 15 14 14 14 13 12 13 12 11 11 11 11 12 12 12 12 15 20 21 15 14 12 10 11 10 11 12 12 13 12
32 32 32 53 46 24 29 30 28 23 20 18 16 17 18 17 16 15 15 14 13 13 13 14 14 12 10 11 13 12 12 14 23 19 16 16 15 12 11 11 12 13 13 13 13
30 41 32 46 52 29 32 28 22 22 23 22 18 18 19 19 18 17 16 13 13 14 13 12 12 13 12 11 12 14 14 14 16 16 16 14 13 13 12 12 13 14 14 14 15
32 34 44 45 48 40 35 27 22 22 24 24 20 17 18 18 18 19 16 14 13 13 13 13 13 13 12 12 12 14 15 14 13 22 22 15 15 13 15 13 13 14 15 16 16
38 53 53 54 54 52 31 28 22 24 23 24 23 22 18 18 18 18 17 17 15 15 14 13 12 17 14 13 12 14 14 14 19 17 21 20 17 14 15 14 13 13 14 15 15
47 55 56 61 60 52 45 27 25 24 24 23 25 26 22 20 19 18 17 18 16 16 16 14 14 13 14 14 13 14 12 13 15 19 17 23 20 16 15 14 14 13 14 15 16
49 57 58 65 59 51 44 39 30 28 27 25 23 25 26 24 22 19 18 19 19 17 16 15 15 15 14 17 15 15 13 14 14 19 23 22 15 15 16 16 15 14 14 15 16
44 53 63 66 62 58 54 44 42 36 31 28 24 22 26 25 23 22 20 20 19 19 20 19 15 14 14 18 16 15 13 14 15 16 14 15 14 16 17 18 17 16 15 16 17
48 51 53 63 63 62 55 51 47 41 40 36 30 26 23 26 26 26 22 21 21 21 21 21 19 16 14 13 15 15 15 15 15 13 14 12 13 13 14 17 18 17 16 16 18
46 48 54 57 60 62 61 57 53 45 40 41 40 33 26 23 24 27 28 24 21 22 22 22 20 18 16 15 14 14 13 14 15 15 14 13 12 12 13 14 16 18 18 17 18
49 52 60 54 61 63 57 59 55 52 47 42 39 42 40 31 25 25 28 30 27 25 22 22 21 21 21 17 17 18 14 13 13 12 13 14 12 13 14 14 14 16 18 18 18

GFSSW_prec_cthk_336.txt.gz
RH
17 15 13 12 11 11 12 11 11 11 14 11 11 10 10 10 9 11 16 13 10 8 10 13 23 34 37 38 33 30 38 42 42 41 44 35 30 25 9 8 7 7 10 11 9
16 16 13 12 12 11 11 11 11 11 13 11 11 10 9 9 9 11 13 12 9 8 10 15 21 24 31 36 36 35 38 47 44 41 33 29 24 20 9 8 9 9 8 9 7
17 16 13 13 12 12 11 11 11 12 13 11 10 9 9 9 11 13 13 11 9 10 12 13 14 17 21 28 33 35 43 42 39 35 30 25 20 11 9 11 10 10 9 9 8
17 17 14 13 12 12 12 11 11 11 12 10 10 9 9 10 16 15 13 11 9 10 12 14 16 17 16 19 22 27 30 32 32 27 19 17 12 12 10 10 11 9 10 9 8
17 16 15 13 12 12 11 11 10 11 11 11 10 9 9 12 15 12 11 10 10 10 12 13 15 16 15 13 14 18 19 15 13 11 10 8 8 8 8 8 10 9 8 8 7
21 18 15 13 11 12 11 11 10 10 10 10 10 9 9 12 13 12 11 11 10 11 14 11 13 13 12 10 12 13 10 9 8 7 7 7 7 7 6 6 7 7 6 7 7
27 21 16 14 12 11 11 10 10 10 9 9 10 9 9 9 11 10 12 12 10 10 11 11 9 12 13 10 9 8 8 9 8 9 9 9 8 7 7 6 6 7 7 6 8
34 28 20 14 13 12 11 10 10 9 9 9 9 9 9 9 9 9 10 12 11 10 9 8 8 11 11 12 10 10 12 16 13 9 9 8 12 7 6 6 5 6 6 7 8
41 34 27 17 12 13 12 10 10 9 9 9 9 10 10 9 8 8 9 11 11 10 8 8 9 11 10 13 18 16 17 13 12 8 9 8 12 9 6 6 6 6 6 6 7
42 39 33 24 13 11 13 14 10 10 10 10 9 10 9 9 9 8 9 9 10 10 10 11 11 12 13 16 21 17 14 10 9 10 8 8 8 8 7 6 5 6 7 7 7
43 43 38 31 15 11 12 15 18 16 14 10 12 9 9 10 8 8 9 9 10 10 11 14 11 17 16 13 11 12 9 8 8 9 8 7 7 7 6 6 6 7 7 8 8
46 43 40 36 22 13 14 21 18 18 17 13 11 10 10 9 9 9 9 10 10 11 11 11 12 14 13 11 8 9 9 10 9 8 8 7 7 6 6 6 6 7 7 8 9
51 47 41 39 28 21 16 17 19 20 18 12 12 12 11 10 9 10 10 10 11 11 11 11 13 13 11 9 10 11 10 9 9 8 7 9 9 7 6 7 8 8 9 9 9
48 48 45 41 33 22 25 19 18 21 21 14 15 15 15 14 11 10 11 11 11 11 11 11 11 11 10 10 10 12 11 9 10 10 13 11 13 9 7 7 8 7 8 9 9
37 41 45 43 43 27 24 24 21 22 21 19 19 17 16 15 14 12 11 11 11 12 11 13 12 11 11 10 11 13 11 10 10 12 13 11 13 8 8 10 8 8 8 8 9
29 34 41 43 46 38 20 23 28 27 22 17 16 16 17 16 15 15 14 13 12 12 12 12 12 12 11 11 11 11 11 12 14 15 20 13 12 11 10 10 8 9 9 9 10
27 30 34 36 41 42 26 26 28 28 21 21 18 16 16 17 17 15 14 14 13 14 13 11 12 11 10 11 11 11 13 21 28 26 22 13 15 11 11 10 9 10 10 11 11
24 26 28 28 35 40 31 31 33 20 22 23 20 18 16 17 18 17 15 16 14 13 13 16 17 14 11 10 13 14 12 19 26 30 24 18 18 12 9 10 10 11 12 12 12
18 22 24 23 38 40 32 36 22 19 20 23 24 23 19 17 18 18 17 16 14 14 15 13 15 14 14 12 11 14 16 13 19 18 22 19 14 12 11 11 10 12 13 13 13
22 26 19 32 42 48 33 28 22 21 21 22 24 23 23 20 19 19 19 16 15 14 14 13 15 15 14 13 12 14 15 16 15 22 28 17 16 16 14 13 12 12 14 13 12
28 32 26 27 43 52 40 27 23 23 22 21 23 24 25 25 20 18 19 18 17 16 16 15 15 18 15 14 13 14 15 15 17 18 27 33 22 15 15 15 14 13 14 13 13
36 40 33 42 49 52 48 37 24 22 23 24 23 24 24 25 27 22 19 18 17 18 18 16 17 17 16 13 12 13 12 13 21 19 20 25 27 17 15 15 15 13 13 14 15
40 38 37 51 54 54 49 46 39 29 25 25 26 24 23 24 27 26 22 21 19 19 19 18 19 20 19 17 16 15 13 13 13 16 25 32 20 13 14 16 15 14 14 15 16
43 47 40 48 55 54 52 51 52 38 36 28 27 28 26 24 23 26 27 26 21 20 20 22 20 18 18 19 19 18 14 13 15 20 17 18 18 16 17 16 16 16 15 15 16
44 47 49 52 52 54 55 49 54 52 41 37 35 31 31 29 27 24 25 30 26 22 21 23 23 20 17 15 17 17 17 16 16 14 17 14 14 12 12 16 16 16 16 16 16
47 49 50 51 61 54 62 57 54 51 50 44 41 40 37 33 29 28 26 27 30 29 24 22 24 22 19 18 17 16 15 16 16 15 15 14 13 11 11 12 13 15 17 17 16
48 48 60 59 57 58 59 56 58 58 53 50 45 45 44 41 38 34 28 25 28 32 32 26 25 23 24 21 21 20 13 13 13 13 14 15 11 11 11 11 11 12 13 15 16

GFSSW_prec_cthk_339.txt.gz
RH
15 15 14 12 11 11 11 10 10 10 10 12 10 10 9 9 8 8 13 13 11 8 8 14 24 35 35 33 29 31 38 43 43 42 38 35 33 29 20 9 9 7 8 8 6
16 16 13 12 12 11 11 11 10 10 11 11 10 9 8 9 8 9 12 13 10 8 9 11 18 27 34 35 34 30 34 44 39 36 36 33 28 25 17 8 9 7 7 8 9
17 16 14 12 12 11 11 11 10 10 12 10 10 9 8 9 12 13 12 12 10 9 11 12 14 19 25 32 36 34 42 37 39 40 35 32 27 20 12 10 9 9 9 8 7
17 17 15 12 12 11 11 11 10 11 11 11 9 9 8 9 13 13 12 11 10 9 11 12 13 17 17 22 28 34 36 35 36 37 33 29 24 14 10 8 10 10 9 9 8
22 18 16 13 11 11 11 11 10 10 11 10 10 9 8 10 11 12 12 10 10 10 11 12 14 14 15 14 16 19 22 23 20 20 17 16 13 9 8 7 10 10 9 8 8
28 25 18 15 11 10 10 10 10 9 10 10 10 9 9 9 10 11 10 11 10 9 11 11 12 12 14 12 12 14 14 12 10 9 10 8 6 6 4 7 9 8 8 8 7
34 29 24 18 13 10 9 10 9 9 9 9 9 9 9 8 9 10 10 12 10 9 10 10 9 11 12 10 10 11 10 9 10 8 8 8 8 7 5 6 7 8 7 7 6
40 35 29 23 15 12 10 10 9 9 9 9 8 9 8 8 9 9 8 9 11 10 8 8 8 10 12 12 12 12 14 15 14 11 9 9 11 8 5 6 6 7 7 7 7
42 40 36 29 20 11 11 11 10 9 9 9 9 10 9 9 9 8 8 9 10 10 9 8 8 10 11 13 23 20 20 16 15 12 11 10 10 9 7 6 5 5 6 6 7
43 41 40 35 26 12 10 12 12 10 9 9 10 11 8 8 9 8 8 9 9 10 10 12 11 13 15 18 21 14 14 11 13 11 10 9 8 8 8 7 6 5 6 7 7
47 43 40 38 33 19 11 12 16 17 15 12 10 9 9 9 9 8 8 9 9 9 10 12 13 16 16 15 12 13 12 11 9 9 9 9 7 6 6 7 7 7 6 7 7
52 47 41 37 35 27 18 17 18 20 17 11 11 11 10 10 9 8 9 9 10 10 11 12 13 12 14 14 13 9 10 10 10 10 9 8 7 6 6 6 6 6 6 7 8
43 44 46 40 35 27 24 22 20 21 21 13 11 11 12 12 11 9 10 9 11 11 11 13 11 12 13 12 10 10 11 10 10 9 8 9 10 8 6 5 6 7 7 8 8
32 35 35 39 41 34 27 24 23 22 25 16 16 15 14 14 13 11 11 11 10 10 11 11 10 11 11 12 11 11 11 11 11 11 12 11 15 8 7 6 7 8 8 9 9
21 24 28 30 39 40 32 21 22 27 24 18 18 18 17 17 15 14 14 12 12 11 11 12 13 12 11 10 10 12 11 11 10 11 13 13 14 9 8 9 8 8 8 8 9
23 22 24 28 31 34 32 26 25 24 25 21 19 16 16 17 17 16 15 14 13 12 12 12 12 12 12 11 11 11 11 11 13 18 24 16 14 10 9 8 9 9 8 7 8
20 23 23 24 30 31 26 26 28 29 20 23 22 18 18 17 17 17 17 16 15 16 14 12 11 11 11 12 12 11 13 19 28 28 20 15 15 11 8 9 9 9 8 8 8
17 18 21 19 27 32 26 29 32 21 19 19 21 23 23 21 18 17 18 18 16 14 16 17 16 14 13 12 13 14 13 22 23 33 24 18 16 12 9 9 9 9 8 9 10
17 16 14 14 23 34 31 37 25 20 18 20 20 23 24 23 22 20 18 20 17 15 16 16 16 14 14 14 12 14 15 13 18 19 23 20 16 12 9 9 10 10 11 11 11
19 23 17 15 28 42 38 35 22 18 18 18 20 20 23 23 24 24 20 17 18 17 15 15 17 16 15 15 14 14 14 15 18 16 23 22 17 14 11 11 11 11 11 12 12
20 26 20 26 33 45 43 32 22 18 21 21 20 20 21 23 25 26 25 19 18 18 18 17 17 18 16 16 15 16 16 16 17 22 27 32 23 14 15 13 12 12 11 13 12
27 31 27 34 42 45 50 39 31 21 24 24 22 21 21 22 24 25 25 26 20 18 19 19 21 22 18 16 15 15 15 15 23 15 23 28 21 17 16 14 14 14 12 13 13
28 35 25 39 48 48 39 41 43 36 31 28 25 24 22 22 24 25 24 25 26 23 20 20 23 24 20 19 17 17 15 14 14 19 21 29 17 15 16 15 15 15 14 13 14
31 38 40 33 46 51 47 46 44 46 42 40 37 32 29 26 24 25 26 26 26 27 25 22 23 22 22 20 22 19 18 17 16 20 15 19 17 13 16 15 15 16 15 14 15
38 39 44 48 48 41 51 51 51 52 47 47 40 41 38 34 28 26 25 27 27 27 28 28 27 23 21 21 20 19 19 20 19 16 16 11 11 10 11 15 16 15 15 16 15
48 41 38 45 49 51 51 46 48 52 55 55 55 46 48 40 35 34 30 27 27 28 27 30 31 26 22 21 22 21 18 18 18 16 16 14 11 11 10 11 12 12 15 17 17
57 49 49 44 46 54 54 59 58 54 58 53 59 65 53 51 49 44 39 34 30 31 33 31 34 34 29 23 24 23 15 16 16 14 14 16 10 10 10 10 10 10 12 14 16

GFSSW_prec_cthk_345.txt.gz
RH
16 15 14 13 10 10 10 10 10 10 9 10 11 10 9 8 8 8 9 11 10 8 7 11 19 33 35 29 25 24 32 37 40 41 34 31 31 30 28 22 14 10 7 7 7
18 17 15 12 11 10 10 10 10 10 9 10 10 9 8 7 8 9 10 10 10 9 9 9 16 26 34 32 30 28 30 32 33 37 33 32 31 29 27 21 13 10 6 6 8
22 19 17 14 11 10 10 9 9 9 10 11 9 9 8 7 9 12 10 10 10 10 11 10 13 19 30 33 33 33 30 31 29 31 31 31 30 28 27 20 14 8 5 6 7
27 26 23 19 13 10 9 9 9 9 10 10 9 8 8 8 9 11 11 10 9 9 11 11 12 17 23 30 34 35 27 30 32 30 30 30 29 28 26 19 13 7 6 7 8
33 31 28 24 19 13 9 8 9 9 10 10 10 9 8 8 8 10 11 10 10 9 11 11 12 13 16 22 28 31 28 26 28 29 27 27 26 27 22 15 10 7 7 8 8
39 35 32 29 24 19 10 8 8 8 9 9 10 9 9 9 8 10 10 10 11 9 10 12 13 12 14 15 17 20 26 27 27 26 23 19 17 17 13 8 8 8 7 8 8
45 41 37 33 28 22 14 8 7 8 8 8 9 9 9 8 8 9 9 10 11 10 8 10 10 10 13 13 13 13 14 15 14 14 14 13 14 14 5 4 6 8 7 8 8
48 45 41 38 33 26 19 10 8 8 8 8 8 8 7 8 8 8 9 9 10 11 10 9 8 9 13 13 13 14 14 14 14 15 15 15 15 8 6 6 5 6 7 7 7
48 46 43 39 36 31 23 10 10 10 9 8 8 9 7 7 8 9 9 9 9 10 10 10 9 9 11 14 19 20 19 19 17 16 17 15 11 7 7 7 6 6 6 7 7
47 45 42 38 34 31 27 15 12 13 11 10 10 10 7 8 8 8 8 9 9 10 10 11 11 12 14 15 21 17 16 14 15 13 12 13 10 8 7 7 7 6 6 6 6
51 48 44 40 36 30 27 20 17 16 16 13 12 10 9 9 9 9 8 9 9 10 10 11 14 13 13 14 17 16 14 14 12 10 12 12 11 8 7 8 7 7 6 6 6
37 36 35 35 39 36 32 24 28 27 21 13 13 14 12 11 10 9 8 8 9 10 10 12 14 13 13 14 14 13 13 12 10 9 11 10 9 6 5 6 6 6 6 6 5
16 16 18 17 27 31 34 33 27 27 27 17 15 12 12 13 13 11 10 10 10 10 11 12 11 12 12 13 13 13 13 12 11 10 10 11 9 7 5 5 5 5 5 5 6
11 11 10 9 16 24 29 32 27 29 27 19 19 16 14 13 13 13 12 12 11 11 12 11 10 11 12 12 13 13 11 11 11 12 10 10 10 6 5 6 6 5 5 5 5
10 11 11 12 18 23 26 28 22 24 18 21 23 20 18 15 15 15 15 15 14 13 12 11 12 12 12 12 12 12 12 12 12 13 16 14 14 8 7 6 5 6 5 5 5
10 10 11 13 17 21 25 23 22 19 15 18 19 21 22 20 18 16 15 16 16 16 15 14 12 12 12 13 13 13 12 14 19 19 19 15 14 10 6 5 4 5 5 5 6
12 10 10 11 16 21 25 22 20 20 15 18 19 19 19 20 22 21 20 19 18 18 17 15 13 12 12 13 13 13 14 14 12 27 17 16 19 11 8 7 6 6 6 5 6
13 11 10 10 13 19 27 24 19 15 18 18 18 17 18 18 20 22 22 22 20 18 19 18 15 14 14 13 13 14 14 15 10 26 29 20 21 12 9 9 8 7 7 7 7
13 12 11 12 13 20 29 27 19 19 20 20 19 19 19 19 18 20 22 23 22 22 22 21 18 17 16 16 15 17 17 14 17 20 26 17 13 8 8 10 9 9 8 8 8
15 13 19 15 18 21 31 30 25 24 23 23 21 20 20 19 19 20 20 19 20 21 20 20 21 18 18 17 17 17 17 20 21 16 16 16 19 12 11 11 11 11 9 9 9
17 16 26 22 23 27 34 33 25 25 26 26 25 24 22 22 21 21 20 19 19 21 21 21 22 21 19 20 20 20 20 21 21 23 19 28 15 15 14 13 13 13 12 10 9
23 20 30 31 31 38 36 33 26 29 29 31 28 26 25 30 25 24 22 20 21 21 22 22 24 25 23 19 19 19 19 21 25 18 29 30 23 8 9 12 14 13 13 12 11
26 23 26 33 44 41 39 37 35 30 31 37 37 34 35 37 37 28 25 24 23 24 24 23 25 27 25 26 25 21 20 21 22 23 25 27 14 10 11 11 14 15 14 14 12
31 31 34 36 42 43 48 43 42 36 35 41 42 40 41 39 38 36 31 29 27 27 27 26 26 25 25 21 25 27 23 22 22 28 24 17 13 9 8 8 9 14 15 15 14
39 34 38 40 45 42 43 46 48 47 43 41 47 49 53 52 44 41 43 39 30 30 30 30 30 28 26 24 24 24 25 26 24 20 21 15 15 11 11 10 9 10 15 16 17
46 42 41 38 37 41 45 49 45 46 48 45 50 52 56 58 62 56 57 53 46 36 37 36 35 33 30 28 27 25 23 24 26 23 19 19 15 13 12 12 10 9 11 15 14
49 49 49 48 43 43 41 39 45 50 47 53 51 52 57 58 59 58 58 59 54 57 54 48 41 38 38 31 32 28 22 20 19 21 22 22 13 12 12 12 11 11 11 13 14

GFSSW_prec_cthk_348.txt.gz
RH
19 17 15 14 11 10 9 9 9 9 9 9 10 10 9 8 7 8 8 9 10 9 9 8 14 23 36 36 31 26 30 35 35 38 35 32 30 30 28 27 17 12 9 6 6
23 21 19 17 12 10 9 9 9 9 9 9 11 9 8 8 7 9 10 10 9 9 11 8 13 20 33 35 32 30 30 28 30 33 34 31 30 28 28 28 18 13 9 7 6
26 26 24 22 17 12 9 9 9 9 9 9 10 9 8 7 8 12 11 11 9 9 12 10 11 17 25 33 34 33 30 26 26 28 32 29 30 28 28 27 20 14 9 6 6
32 31 29 26 23 17 12 9 8 8 9 10 9 8 8 7 8 13 11 11 10 8 11 12 11 13 20 28 33 34 32 29 27 27 28 29 29 28 27 27 19 14 9 6 6
38 36 33 31 27 21 17 9 8 8 8 9 10 9 8 8 7 9 10 10 11 9 10 11 12 12 16 19 24 31 32 29 27 27 25 24 25 25 24 26 18 12 9 6 7
42 40 37 34 31 26 20 14 7 7 8 9 9 9 9 9 8 8 10 10 11 10 9 11 12 13 13 16 19 23 26 27 24 22 23 22 21 19 19 18 12 10 8 7 7
46 43 41 39 34 29 23 18 9 6 7 8 8 9 9 8 8 9 10 9 10 11 10 9 10 10 14 14 14 14 15 18 20 20 18 15 14 15 10 12 6 7 7 7 7
49 45 43 41 36 32 26 18 11 7 7 8 8 8 7 7 7 8 9 9 9 10 10 10 9 9 11 14 14 14 14 15 15 18 17 17 16 13 12 10 6 5 6 7 8
49 45 43 40 35 32 29 24 11 10 10 9 8 8 7 7 7 8 9 9 9 10 10 10 10 10 11 14 17 21 20 18 17 16 17 18 16 13 12 7 7 7 6 6 7
48 44 42 40 36 31 27 26 18 13 12 11 10 10 8 8 8 9 9 8 9 9 9 10 12 13 13 14 21 19 16 16 16 14 17 17 16 12 8 8 7 7 7 6 6
44 42 39 38 34 31 28 25 20 18 16 14 12 11 9 8 8 9 9 9 9 9 9 10 13 14 14 15 15 18 16 15 15 13 14 14 12 7 6 7 7 7 7 6 5
22 20 19 18 23 27 29 29 32 26 24 16 14 14 12 12 10 9 9 9 9 10 10 11 12 12 13 14 15 15 15 14 11 10 11 10 9 5 5 6 5 5 6 5 5
10 10 9 9 9 17 24 31 33 31 29 19 17 16 13 14 13 12 10 10 10 10 11 12 10 11 12 13 14 13 13 13 13 11 10 11 7 4 4 5 5 5 4 4 5
7 6 6 6 10 19 21 26 26 24 26 20 21 19 15 14 14 14 13 13 12 12 12 12 11 11 11 12 12 13 12 12 12 13 12 10 10 6 4 5 5 5 5 4 4
8 8 7 9 11 18 23 25 21 23 16 17 21 20 20 18 16 15 16 15 15 15 15 13 12 13 13 12 12 13 13 13 13 14 16 13 14 7 6 4 4 4 4 4 4
11 10 8 9 11 15 21 23 22 18 16 17 18 18 19 19 19 18 17 16 16 16 17 16 15 14 13 13 13 13 12 14 20 19 16 13 14 9 6 5 6 5 5 5 5
13 11 9 9 11 15 21 21 19 19 15 18 18 19 19 19 19 19 20 21 21 21 17 15 15 15 14 14 14 14 15 15 10 23 14 17 20 11 8 9 8 7 6 6 5
17 12 10 9 10 14 21 20 20 16 18 19 19 19 18 18 19 19 19 20 20 20 23 20 16 16 16 15 14 15 14 16 9 21 28 19 19 12 11 9 9 9 8 7 6
18 15 14 12 11 16 23 23 20 19 23 23 20 20 19 19 19 20 20 20 19 20 22 22 21 18 17 18 17 18 18 15 17 21 27 17 11 6 7 10 11 10 9 8 7
19 16 22 17 17 19 26 25 23 24 25 24 22 21 22 20 21 21 20 19 19 19 18 19 21 21 20 19 19 19 18 20 22 15 13 14 17 12 10 13 12 11 10 9 9
22 20 27 22 23 24 30 31 28 26 28 29 26 26 24 26 23 23 21 20 21 21 20 20 20 20 21 23 21 22 23 23 22 22 18 22 13 11 14 12 12 13 12 11 10
24 23 32 33 29 34 32 30 29 31 30 30 30 28 28 31 28 24 24 23 24 24 23 23 24 23 20 19 21 23 22 23 28 21 31 28 23 9 10 10 11 13 13 13 11
25 23 25 31 42 40 37 38 36 33 32 35 36 36 37 38 39 34 27 28 29 28 28 25 27 28 23 21 21 22 25 26 25 26 28 29 17 10 11 11 11 11 14 14 14
29 30 31 36 40 42 44 43 42 39 39 39 38 40 43 42 41 40 39 35 36 34 32 30 30 29 29 22 24 23 22 24 26 33 23 21 15 12 11 10 10 9 11 17 15
36 36 40 40 44 40 39 44 47 47 44 45 49 49 49 49 48 51 49 43 39 39 38 37 35 33 31 30 28 26 25 25 26 23 25 21 19 15 15 14 13 12 11 11 14
44 43 43 43 41 42 42 46 45 45 48 46 52 53 54 60 59 56 53 54 49 44 48 52 44 40 35 32 31 30 28 28 28 24 23 22 18 19 18 17 15 15 13 11 11
47 49 51 49 48 45 42 39 43 42 42 51 51 51 53 55 57 53 53 53 51 50 50 55 54 49 48 38 38 32 28 26 24 24 24 25 18 16 17 19 18 16 14 13 12